Regional Weather Roundup
Issued by NWS

Home | Current Version | Previous Version | Graphics & Text | Print | Product List | Glossary On
Versions: 1 2 3 4 5 6 7 8 9 10 11 12 13 14 15 16 17 18 19 20 21 22 23 24 25 26 27 28 29 30 31 32 33 34 35 36 37 38 39 40 41 42 43 44 45 46 47 48 49 50
000
ASUS43 KTOP 100308
RWRKS

WEATHER ROUNDUP FOR KANSAS
NATIONAL WEATHER SERVICE GOODLAND KS
1000 PM CDT WED JUL 09 2014

NOTE:  "FAIR" INDICATES FEW OR NO CLOUDS BELOW 12,000 FEET WITH NO
SIGNIFICANT WEATHER AND/OR OBSTRUCTIONS TO VISIBILITY.

KSZ001>006-013>018-027>032-041>047-100400-
NORTHWEST KANSAS

CITY           SKY/WX    TMP DP  RH WIND       PRES   REMARKS
GOODLAND       CLOUDY    78  64  61 SE22G31   29.93F
HAYS           MOCLDY    77  57  50 SE8       29.97R
HILL CITY      CLOUDY    81  55  40 SE9       29.97R
RUSSELL        MOCLDY    78  60  53 SE8       29.96S
$$

KSZ061>065-074>080-084>089-100400-
SOUTHWEST KANSAS

CITY           SKY/WX    TMP DP  RH WIND       PRES   REMARKS
DODGE CITY     CLEAR     76  60  57 SE14      29.97R
ELKHART          N/A     80  54  40 SW10        N/A
GARDEN CITY    CLEAR     77  65  66 S18       29.95S
GREAT BEND     CLEAR     75  57  53 S9        29.96S
LIBERAL        PTCLDY    81  61  50 S8        29.97S
PRATT          CLEAR     79  54  41 S9        30.00R
$$

KSZ066>073-081>083-090>101-100400-
SOUTHEAST KANSAS

CITY           SKY/WX    TMP DP  RH WIND       PRES   REMARKS
CHANUTE        CLEAR     74  61  63 E6        30.03R
COFFEYVILLE    CLEAR     75  60  59 E6        30.01R
HUTCHINSON     CLOUDY    78  61  55 E7        29.99R
MEDICINE LODGE   N/A     80  63  55 S8        29.97R
NEWTON         CLEAR     75  59  57 SE8       30.05R
PARSONS        CLEAR     71  61  70 CALM      30.03R
WICHITA INTL   PTCLDY    79  62  56 SE10      29.99R
WICHITA JABRA  CLEAR     76  64  66 SE7       30.01R
WICHITA MCCONL CLEAR     78  64  61 E8        30.01R
WINFIELD       PTCLDY    79  63  57 E8        30.00R
$$

KSZ007>012-019>026-033>040-048>060-102>105-100400-
NORTHEAST KANSAS

CITY           SKY/WX    TMP DP  RH WIND       PRES   REMARKS
CONCORDIA      TSTM      75  65  70 NE14      30.02R
EMPORIA        CLEAR     71  61  70 SE7       30.03R
LAWRENCE       PTCLDY    72  64  76 E7        30.04R
MANHATTAN      MOCLDY    78  63  59 E10       30.02R
MARYSVILLE     LGT RAIN  68  63  83 SE10      30.02F
OLATHE IND     CLEAR     73  62  68 E3        30.07R
OLATHE EXE     CLEAR     73  60  63 E5        30.06R
SALINA         PTCLDY    80  61  52 SE9       29.98R
TOPEKA BILLARD MOCLDY    76  65  68 NE5       30.04R
TOPEKA FORBES  MOCLDY    74  63  68 E6        30.04R
$$


USA.gov is the U.S. government's official web portal to all federal, state and local government web resources and services.